Hourly Weather Roundup
Issued by NWS Central Illinois

Home | Current Version | Previous Version | Graphics & Text | Print | Product List | Glossary On
Versions: 1 2 3 4 5 6 7 8 9 10 11 12 13 14 15 16 17 18 19 20 21 22 23 24 25 26 27 28 29 30 31 32 33 34 35 36 37 38 39 40 41 42 43 44 45 46 47 48 49 50
000
NZUS43 KILX 270910
HWRILX

AREA WEATHER ROUNDUP
NATIONAL WEATHER SERVICE, LINCOLN IL
300 AM CST SAT DEC 27 2014


CITY           SKY/WX    TMP DP  RH WIND       PRES   REMARKS
BLOOMINGTON    CLOUDY    46  45  97 SW17      30.02F
CHAMPAIGN      LGT RAIN  45  43  93 S15       30.05F FOG
DECATUR        CLOUDY    46  44  93 S16       30.05F
FLORA          CLOUDY    45  44  97 S7        30.11F
GALESBURG      CLOUDY    48  46  90 S12G17    29.95F
JACKSONVILLE   CLOUDY    49  47  90 S10       30.01F
LACON          CLOUDY    47  44  87 SW14G22   29.98S
LAWRENCEVILLE  LGT RAIN  44  42  93 S8        30.15S
LITCHFIELD     CLOUDY    44  42  94 S12       30.06S
$$


CITY           SKY/WX    TMP DP  RH WIND       PRES   REMARKS
LINCOLN        CLOUDY    47  45  92 S9        30.02F
MACOMB         CLOUDY    49  47  93 S12       29.98F
MATTOON        CLOUDY    44  43  96 S13       30.07F
MT CARMEL AP   LGT RAIN  46  43  87 S6        30.14S
OLNEY-NOBLE AP CLOUDY    45  43  93 S6        30.12F
PARIS          DRIZZLE   45  43  94 S14       30.10F
PEORIA         CLOUDY    49  44  83 S15       29.99F
PONTIAC        CLOUDY    47  46  95 S13G18    30.02S
RANTOUL        DRIZZLE   46  45  96 S12       30.05F
ROBINSON       LGT RAIN  44  41  91 S6        30.14F
SPRINGFIELD    CLOUDY    48  45  89 S14       30.03S
TAYLORVILLE    CLOUDY    45  43  93 S15       30.05S
$$

...REGIONAL REPORTS...


CITY           SKY/WX    TMP DP  RH WIND       PRES   REMARKS
CHICAGO O`HARE CLOUDY    46  41  82 S10       29.98F
KANKAKEE       DRIZZLE   46  44  96 S14       30.03F
MOLINE         CLOUDY    49  45  86 S10       29.91F
MOUNT VERNON   CLOUDY    46  43  87 S8        30.12S
PITTSFIELD     CLOUDY    49  46  88 S12       30.00F
QUINCY         CLOUDY    49  45  86 S10       29.97S
ROCKFORD       CLOUDY    44  42  93 S8        29.96F
$$


CITY           SKY/WX    TMP DP  RH WIND       PRES   REMARKS
BURLINGTON     CLOUDY    51  48  89 SW15      29.94R
CEDAR RAPIDS   LGT RAIN  38  38 100 W8        29.91R FOG     WCI  32
DES MOINES     LGT SNOW  34  32  92 W12       29.99R FOG     WCI  25
KIRKSVILLE     CLOUDY    43  43 100 W14G25    29.97R FOG
OTTUMWA        MIX PCPN  36  35  96 W14       29.94R FOG     WCI  27
ST LOUIS       CLOUDY    50  46  87 S6        30.05S
$$


CITY           SKY/WX    TMP DP  RH WIND       PRES   REMARKS
TERRE HAUTE    LGT RAIN  45  40  82 S9        30.13R
EVANSVILLE     CLOUDY    49  39  68 S8        30.16S
INDIANAPOLIS   CLOUDY    45  35  68 S10       30.12F
LAFAYETTE      LGT RAIN  46  39  76 S7        30.09F
MADISON        CLOUDY    36  34  92 NW3       29.92F FOG
MILWAUKEE      LGT RAIN  45  41  86 S6        29.96F
$$




USA.gov is the U.S. government's official web portal to all federal, state and local government web resources and services.